Temp
5 6 6 7 7 7 8 8 8 8 9 9 9 9 9 8 7 5 5 4 4 3 3 3 3 2 2 2 2 2 2 1 1 -0 -0 -1 -2 -2 -2 -3 -5 -6 -5
5 5 6 6 6 7 7 7 7 7 8 8 8 9 8 5 4 5 4 4 4 4 3 3 2 1 1 1 2 2 1 1 0 -1 -2 -1 -1 -2 -3 -3 -3 -5 -5
5 5 4 4 5 6 6 6 6 6 6 4 4 5 5 4 4 3 3 4 4 4 2 1 0 1 1 1 1 1 1 0 -0 -0 -1 -1 -2 -2 -4 -4 -5 -6 -6
4 4 5 3 4 5 6 6 5 4 4 4 4 4 4 3 4 3 4 3 3 3 2 2 2 1 2 1 0 0 0 -0 -0 -1 -2 -2 -2 -3 -4 -5 -6 -6 -7
3 3 3 4 4 4 5 4 4 4 3 3 4 4 4 4 3 3 3 3 3 3 2 2 2 1 0 -0 -0 -0 -1 -1 -1 -2 -2 -2 -2 -4 -4 -5 -6 -6 -6
3 4 3 3 3 3 4 4 3 4 2 2 2 3 3 3 3 3 2 3 2 1 1 1 2 1 -0 -0 -1 -1 -1 -1 -1 -2 -3 -3 -4 -4 -5 -6 -6 -6 -7
2 3 4 3 3 2 2 1 3 3 3 3 2 2 3 2 3 2 2 1 1 1 0 1 1 -0 -0 -1 -1 -1 -1 -3 -3 -4 -4 -4 -5 -5 -6 -6 -7 -7 -7
0 1 0 0 -0 0 1 1 1 2 2 2 2 2 2 1 1 1 0 -0 0 -0 -0 0 1 -0 -1 -1 -1 -1 -2 -3 -3 -3 -3 -5 -5 -5 -7 -7 -8 -8 -8
-2 -1 -2 -1 -1 -1 0 1 2 1 1 2 2 1 0 -0 -1 -1 -1 -1 -1 -2 -1 -0 -1 -1 -1 -2 -2 -2 -2 -3 -3 -3 -4 -6 -6 -6 -7 -8 -8 -8 -8
-2 -2 -3 -2 -2 -1 -1 0 1 -0 -0 -0 0 -1 -1 -1 -1 -1 -2 -2 -2 -2 -3 -2 -2 -2 -2 -2 -2 -3 -3 -3 -3 -3 -4 -5 -6 -6 -7 -8 -9 -9 -9
-3 -3 -2 -2 -2 -1 -1 -0 0 -1 -2 -1 -1 -1 -1 -1 -1 -2 -3 -3 -3 -2 -2 -2 -3 -3 -3 -2 -2 -2 -2 -3 -4 -4 -5 -5 -6 -6 -6 -8 -9 -9 -9
-4 -3 -3 -3 -3 -3 -2 -2 -2 -1 -2 -2 -1 -2 -3 -3 -3 -3 -3 -4 -3 -3 -4 -3 -3 -2 -3 -3 -3 -3 -3 -3 -3 -4 -5 -6 -7 -7 -8 -9 -9 -10 -9
-5 -4 -4 -3 -3 -3 -3 -3 -3 -3 -2 -3 -3 -3 -4 -5 -4 -4 -3 -3 -2 -2 -2 -2 -2 -3 -3 -3 -3 -4 -4 -4 -4 -4 -4 -5 -6 -8 -9 -9 -9 -9 -9
-5 -5 -4 -4 -4 -4 -4 -4 -4 -4 -4 -4 -4 -5 -3 -3 -2 -3 -3 -3 -3 -2 -2 -2 -2 -2 -2 -2 -3 -3 -4 -4 -5 -5 -6 -7 -7 -7 -8 -9 -9 -9 -9
-5 -5 -5 -6 -5 -4 -5 -5 -5 -5 -5 -4 -4 -4 -3 -3 -3 -3 -3 -3 -2 -2 -2 -2 -2 -2 -3 -3 -4 -4 -5 -6 -7 -7 -7 -7 -7 -8 -9 -9 -9 -9 -9
-5 -5 -6 -5 -4 -4 -4 -4 -4 -4 -4 -4 -4 -3 -3 -3 -3 -3 -2 -2 -2 -2 -3 -3 -3 -3 -4 -4 -5 -5 -6 -6 -6 -7 -8 -8 -8 -8 -9 -9 -10 -10 -10
-6 -5 -6 -5 -4 -4 -4 -4 -4 -4 -4 -4 -3 -3 -3 -2 -2 -2 -2 -2 -3 -3 -4 -4 -4 -4 -4 -5 -5 -5 -6 -6 -6 -7 -8 -8 -8 -9 -9 -10 -10 -11 -11
-6 -6 -6 -5 -5 -4 -4 -4 -4 -4 -4 -4 -4 -3 -3 -3 -3 -3 -3 -3 -3 -3 -4 -4 -4 -5 -5 -5 -5 -6 -6 -6 -6 -7 -8 -9 -9 -10 -10 -11 -11 -11 -12
-6 -7 -6 -5 -5 -5 -5 -5 -4 -4 -4 -4 -4 -3 -3 -3 -3 -4 -4 -4 -4 -4 -4 -5 -5 -5 -6 -6 -6 -6 -7 -7 -7 -8 -8 -10 -10 -11 -11 -12 -12 -12 -13
-7 -7 -6 -6 -6 -6 -5 -5 -5 -5 -4 -4 -4 -4 -4 -4 -4 -4 -4 -4 -5 -5 -5 -5 -5 -6 -6 -7 -7 -8 -8 -8 -7 -8 -9 -10 -11 -12 -12 -13 -13 -13 -14
-7 -7 -6 -6 -6 -6 -5 -5 -5 -5 -5 -5 -5 -5 -5 -5 -5 -5 -5 -5 -5 -5 -5 -6 -7 -7 -7 -7 -8 -8 -8 -8 -8 -9 -10 -11 -13 -13 -13 -13 -14 -14 -15
-7 -6 -6 -6 -6 -6 -6 -5 -6 -6 -6 -6 -6 -5 -5 -5 -6 -6 -6 -6 -6 -6 -6 -7 -8 -8 -8 -8 -8 -8 -9 -9 -10 -11 -11 -12 -14 -14 -14 -14 -14 -15 -15
-7 -7 -7 -7 -7 -6 -6 -6 -6 -6 -6 -6 -6 -6 -6 -6 -6 -6 -6 -6 -6 -7 -7 -8 -8 -8 -8 -9 -9 -9 -9 -10 -10 -11 -12 -13 -14 -14 -14 -14 -14 -14 -15
-7 -7 -7 -7 -6 -6 -6 -6 -6 -6 -6 -7 -6 -7 -7 -7 -7 -7 -7 -7 -7 -7 -7 -8 -8 -9 -9 -10 -10 -10 -10 -11 -11 -12 -13 -14 -14 -15 -15 -15 -15 -15 -15
-7 -7 -7 -7 -7 -7 -7 -7 -7 -7 -7 -7 -7 -7 -7 -8 -8 -8 -8 -8 -8 -8 -8 -8 -9 -9 -10 -10 -10 -11 -11 -12 -12 -12 -13 -14 -15 -15 -15 -15 -15 -15 -15
-8 -8 -8 -7 -7 -7 -7 -7 -7 -7 -7 -7 -8 -8 -8 -8 -9 -9 -9 -9 -9 -9 -9 -9 -10 -10 -11 -11 -11 -11 -12 -12 -12 -13 -14 -15 -15 -15 -15 -15 -15 -15 -15
Height
2961 2965 2969 2972 2974 2976 2978 2981 2985 2989 2992 2996 3001 3004 3008 3012 3017 3019 3024 3027 3028 3026 3034 3037 3038 3040 3051 3056 3060 3064 3067 3070 3074 3076 3080 3082 3082 3083 3086 3086 3089 3095 3097
2950 2952 2955 2959 2962 2963 2965 2968 2972 2974 2977 2981 2986 2989 2992 2996 3000 3002 3008 3009 3015 3018 3017 3015 3024 3027 3038 3045 3046 3050 3055 3060 3063 3064 3067 3068 3072 3075 3078 3080 3083 3085 3086
2943 2944 2945 2947 2950 2951 2954 2956 2958 2962 2966 2968 2970 2974 2979 2981 2986 2988 2992 2994 2999 3007 3003 2999 3016 3023 3027 3027 3032 3037 3043 3049 3052 3053 3054 3058 3061 3064 3066 3069 3071 3074 3077
2932 2934 2935 2937 2939 2941 2942 2945 2947 2950 2953 2956 2958 2963 2966 2969 2971 2974 2977 2979 2984 2990 2995 3000 3002 3010 3013 3020 3023 3028 3034 3035 3038 3042 3046 3048 3051 3054 3057 3058 3061 3065 3067
2924 2924 2924 2925 2929 2931 2932 2933 2935 2938 2941 2944 2947 2949 2954 2956 2959 2946 2960 2968 2972 2977 2982 2987 2989 2990 3000 3007 3011 3015 3020 3023 3026 3031 3035 3036 3040 3043 3045 3050 3053 3055 3057
2913 2914 2914 2915 2916 2919 2919 2921 2922 2925 2928 2931 2935 2936 2941 2944 2947 2951 2951 2957 2960 2965 2969 2973 2976 2987 2989 2994 3001 3005 3010 3013 3016 3019 3021 3024 3029 3032 3035 3039 3042 3043 3047
2901 2902 2903 2905 2905 2907 2908 2910 2912 2915 2917 2920 2924 2926 2929 2933 2928 2939 2942 2943 2948 2953 2958 2961 2965 2970 2978 2985 2990 2996 2998 3001 3005 3009 3011 3015 3017 3023 3028 3031 3033 3037 3040
2890 2890 2891 2895 2897 2898 2900 2901 2903 2904 2906 2907 2912 2913 2919 2919 2923 2928 2931 2934 2937 2941 2943 2947 2954 2961 2968 2973 2978 2983 2988 2993 2994 2997 3001 3005 3008 3012 3018 3026 3029 3029 3031
2881 2881 2886 2888 2890 2891 2890 2891 2893 2894 2895 2896 2901 2904 2906 2911 2914 2916 2918 2923 2927 2931 2933 2938 2945 2951 2958 2963 2969 2974 2979 2982 2985 2988 2992 2996 2999 3003 3007 3012 3016 3018 3025
2872 2873 2876 2880 2882 2883 2882 2883 2884 2885 2887 2886 2889 2896 2898 2900 2903 2906 2912 2917 2919 2922 2926 2931 2940 2947 2952 2957 2961 2966 2972 2975 2978 2981 2984 2986 2990 2994 2998 3003 3009 3011 3014
2865 2865 2869 2872 2874 2874 2875 2876 2877 2879 2883 2882 2883 2889 2891 2894 2898 2902 2908 2912 2916 2919 2926 2931 2938 2945 2947 2953 2958 2960 2964 2967 2971 2973 2976 2978 2981 2985 2990 2995 3001 3004 3007
2857 2858 2861 2864 2867 2867 2870 2871 2871 2874 2879 2877 2878 2885 2888 2891 2896 2902 2907 2913 2919 2924 2928 2932 2937 2941 2945 2950 2953 2959 2960 2962 2963 2966 2968 2970 2974 2978 2982 2987 2993 2997 3001
2849 2851 2855 2857 2860 2864 2867 2868 2870 2871 2874 2876 2879 2885 2888 2892 2896 2902 2909 2914 2920 2924 2926 2929 2932 2936 2940 2945 2949 2955 2957 2958 2959 2961 2964 2964 2966 2971 2975 2978 2984 2988 2990
2842 2845 2847 2850 2854 2858 2862 2864 2867 2871 2873 2876 2880 2887 2892 2894 2899 2902 2907 2912 2918 2923 2925 2929 2930 2934 2937 2941 2945 2950 2951 2952 2955 2957 2960 2961 2960 2962 2966 2970 2973 2977 2978
2834 2837 2842 2846 2850 2854 2859 2861 2865 2871 2874 2878 2881 2886 2891 2895 2898 2901 2905 2909 2914 2918 2922 2925 2928 2931 2934 2936 2939 2943 2944 2948 2949 2950 2953 2953 2955 2957 2957 2961 2963 2965 2968
2826 2832 2838 2843 2848 2852 2856 2860 2864 2867 2871 2876 2881 2885 2889 2894 2897 2900 2904 2909 2912 2916 2920 2923 2926 2927 2929 2931 2932 2935 2938 2939 2938 2940 2942 2944 2946 2949 2949 2951 2954 2954 2956
2819 2828 2835 2840 2845 2849 2853 2858 2863 2867 2870 2874 2879 2883 2887 2891 2894 2899 2904 2908 2911 2915 2917 2920 2922 2923 2925 2926 2927 2929 2931 2930 2929 2929 2931 2935 2937 2939 2941 2943 2944 2944 2946
2819 2826 2833 2839 2843 2847 2853 2857 2861 2866 2870 2874 2878 2883 2888 2892 2896 2899 2903 2906 2909 2911 2914 2915 2917 2918 2918 2919 2921 2922 2923 2921 2920 2918 2920 2923 2925 2927 2929 2932 2935 2934 2936
2820 2824 2833 2839 2844 2849 2854 2858 2862 2866 2870 2875 2880 2884 2887 2891 2895 2898 2901 2904 2906 2908 2910 2912 2911 2911 2912 2913 2913 2915 2915 2912 2909 2906 2908 2912 2914 2916 2917 2921 2923 2925 2928
2822 2828 2835 2840 2845 2849 2854 2858 2862 2867 2872 2876 2879 2884 2888 2890 2894 2897 2899 2900 2902 2904 2905 2905 2906 2906 2905 2907 2908 2907 2904 2899 2896 2898 2900 2902 2903 2905 2906 2909 2911 2914 2919
2827 2833 2838 2842 2846 2850 2854 2858 2862 2866 2871 2876 2881 2884 2885 2888 2890 2891 2893 2895 2897 2896 2897 2897 2897 2897 2898 2900 2898 2895 2892 2890 2890 2891 2891 2890 2892 2893 2895 2898 2901 2905 2910
2831 2836 2839 2844 2848 2852 2856 2860 2865 2870 2874 2877 2880 2883 2884 2886 2888 2889 2891 2892 2891 2891 2891 2892 2891 2892 2892 2891 2889 2887 2885 2883 2882 2882 2882 2881 2882 2884 2886 2889 2892 2896 2900
2834 2838 2842 2845 2849 2853 2858 2862 2866 2870 2873 2876 2879 2881 2882 2883 2884 2885 2885 2885 2885 2885 2885 2885 2885 2885 2883 2882 2879 2878 2877 2876 2875 2875 2874 2874 2874 2876 2879 2881 2884 2888 2891
2836 2839 2843 2847 2851 2854 2858 2861 2865 2869 2872 2874 2876 2876 2876 2877 2877 2877 2877 2877 2877 2877 2876 2875 2875 2874 2873 2872 2871 2871 2871 2870 2869 2868 2867 2867 2868 2870 2872 2875 2878 2881 2885
2837 2840 2844 2848 2851 2855 2858 2861 2864 2866 2867 2867 2867 2868 2868 2869 2870 2870 2870 2868 2866 2866 2865 2865 2865 2865 2865 2866 2866 2865 2865 2864 2863 2862 2861 2861 2862 2864 2866 2869 2872 2875 2878
2839 2842 2845 2848 2850 2853 2855 2857 2858 2859 2859 2860 2861 2861 2861 2860 2860 2859 2859 2858 2857 2856 2856 2857 2857 2857 2858 2859 2859 2859 2858 2857 2856 2855 2854 2855 2856 2858 2860 2863 2866 2869 2872
Wind_Speed
35 36 37 39 39 47 52 50 50 49 50 53 53 52 59 51 58 55 57 57 67 66 56 56 61 53 53 54 53 48 55 52 54 52 49 51 51 57 58 55 46 46 46
33 38 41 42 42 46 50 55 48 48 51 54 52 51 49 47 41 51 55 56 63 67 70 54 53 49 52 55 51 52 55 55 56 53 53 57 47 47 50 51 45 44 44
34 38 41 39 40 44 48 49 50 48 48 48 49 49 49 51 48 45 51 64 67 65 61 60 42 49 54 55 53 51 53 57 51 53 50 45 41 44 42 41 38 38 39
30 37 43 36 38 41 45 46 44 40 43 38 37 41 37 35 35 46 48 51 50 52 46 46 51 51 57 54 46 46 47 51 44 37 36 39 37 39 37 36 33 33 36
28 28 29 27 33 39 42 43 46 43 40 39 38 35 39 50 47 49 36 46 46 52 54 45 49 52 45 48 48 47 42 39 38 40 40 39 38 39 35 31 32 32 34
33 28 30 28 26 31 40 46 39 40 40 32 39 31 41 46 43 48 40 52 48 49 42 51 46 47 43 48 46 39 38 38 40 42 41 38 37 34 33 34 31 34 34
40 35 28 26 24 29 33 28 38 40 38 41 38 36 44 51 36 41 43 45 44 48 45 45 46 45 40 39 39 40 42 39 40 36 37 38 35 36 33 32 32 30 31
41 39 27 22 19 20 29 32 32 35 37 36 42 37 44 41 32 47 42 45 46 47 37 38 45 42 40 40 41 43 39 38 37 40 38 34 30 30 29 26 24 28 36
38 34 29 24 25 23 25 20 22 28 30 32 41 37 30 36 34 36 41 42 37 38 36 42 41 38 40 36 30 30 36 38 34 30 30 28 29 29 32 29 33 33 38
30 33 27 29 21 17 19 18 18 20 21 20 28 27 36 36 41 38 37 34 38 35 36 39 35 32 27 28 28 26 24 22 22 24 26 29 30 30 32 31 33 35 34
24 26 28 30 28 24 20 17 17 15 16 21 25 28 30 27 30 32 32 31 29 26 24 21 20 18 16 16 19 20 20 23 25 25 27 28 30 31 31 34 33 32 31
25 28 21 22 23 18 16 13 12 11 11 11 15 23 22 21 22 20 17 14 13 14 11 9 9 14 19 18 18 20 21 23 24 26 27 29 29 30 31 32 31 32 34
28 25 27 23 22 20 19 17 15 13 12 16 21 22 21 21 20 18 15 13 13 10 11 13 15 16 17 17 17 18 18 20 22 23 26 28 29 30 32 35 37 36 34
27 27 26 24 20 19 22 20 19 21 21 21 20 19 18 19 17 16 14 13 11 11 12 12 12 14 16 18 20 21 22 22 22 24 27 29 30 33 35 38 39 37 37
26 28 24 21 20 20 22 22 22 20 19 19 20 19 19 19 19 18 17 16 15 15 15 14 14 14 14 15 16 18 20 24 25 27 28 28 31 35 38 39 40 38 36
32 31 27 22 22 21 23 20 20 21 19 17 16 16 15 14 14 14 14 14 14 14 13 12 12 11 12 13 14 17 20 21 24 26 29 31 35 38 39 40 41 39 37
29 30 28 24 22 20 21 21 19 18 19 18 16 15 15 15 15 15 14 13 12 11 11 12 12 12 12 12 14 16 19 21 24 27 31 35 38 40 41 42 40 37 38
32 31 27 26 25 19 17 19 20 20 18 18 18 15 14 13 12 10 9 9 8 9 10 11 12 11 11 11 14 16 18 20 23 26 31 36 40 42 43 43 40 38 38
26 24 23 20 21 21 19 19 19 19 19 17 16 15 13 11 9 8 7 6 7 9 10 11 13 13 13 13 15 17 18 20 22 24 29 36 41 43 44 42 38 34 37
28 18 16 15 16 17 19 21 20 20 18 15 12 10 8 6 6 6 6 7 8 9 11 12 14 15 15 16 16 17 18 18 20 23 27 32 37 40 41 39 36 35 35
18 17 17 19 19 20 20 19 18 16 13 11 9 7 5 5 6 7 8 9 11 13 14 14 15 16 17 18 17 17 17 18 20 22 24 27 33 37 39 37 34 32 32
18 19 20 20 20 20 19 17 16 14 12 9 7 6 7 8 8 9 11 12 14 15 16 17 16 16 18 18 18 19 18 17 18 20 22 23 27 31 35 36 34 33 33
17 17 18 18 18 17 16 14 12 10 8 7 7 7 8 9 11 12 14 15 17 18 19 19 19 20 19 18 17 18 18 18 18 20 20 20 22 26 31 34 34 35 34
17 17 17 16 16 14 12 10 8 8 8 9 9 11 12 15 17 20 21 21 20 21 21 22 22 21 20 18 18 19 19 19 18 19 19 19 20 23 27 31 32 32 33
16 16 16 15 14 12 10 8 8 8 10 12 15 18 21 23 24 26 27 27 26 25 25 24 24 22 21 20 19 19 19 19 18 19 20 20 20 23 26 29 30 31 32
14 14 13 12 10 8 8 8 10 12 14 17 18 20 21 23 25 27 29 31 31 30 27 26 24 23 22 20 19 19 19 18 18 17 18 21 21 22 24 27 29 31 31
Wind_Direction
262 260 254 254 256 251 244 241 240 242 245 248 249 247 246 245 242 242 247 247 249 246 255 247 244 233 238 237 240 242 241 240 245 247 248 249 247 251 253 251 253 262 267
253 258 259 259 256 250 248 245 243 246 251 252 250 252 256 260 252 251 248 246 248 243 247 242 246 237 239 239 239 236 242 241 244 248 252 255 266 272 266 264 266 266 267
246 251 259 264 257 247 242 242 243 245 248 253 259 255 255 257 258 246 255 246 247 246 256 239 250 235 236 232 235 239 246 249 250 256 257 263 263 266 266 262 266 260 256
248 249 249 264 258 250 244 244 243 246 246 251 260 251 256 244 256 247 241 251 243 242 241 230 241 238 240 235 236 242 246 247 250 255 260 257 259 263 257 259 261 263 258
253 262 263 263 256 252 248 246 246 245 248 252 254 244 258 257 251 250 237 238 238 239 242 244 249 249 246 238 241 239 244 247 248 247 249 251 255 249 253 254 262 254 259
254 261 261 265 258 262 253 242 237 241 241 251 245 253 261 250 244 254 250 238 244 238 242 234 238 240 241 238 241 238 240 243 244 244 248 252 247 254 254 251 250 247 254
256 258 257 260 259 264 260 249 245 243 246 244 249 256 256 257 239 254 244 244 231 240 233 230 236 232 233 226 231 233 235 234 237 241 243 246 250 252 247 248 246 251 243
261 257 251 251 257 256 261 256 251 241 239 241 241 242 246 254 237 240 239 236 238 234 222 223 223 223 222 229 229 235 240 240 239 240 243 251 252 242 239 239 244 251 231
262 263 257 250 251 260 263 267 264 252 245 245 250 245 233 228 223 226 229 227 216 213 202 211 211 216 228 225 235 241 241 242 239 247 248 241 246 236 222 222 237 226 232
253 260 256 264 251 269 263 272 270 242 240 228 223 230 220 220 224 222 222 208 202 196 196 204 213 218 228 237 238 239 243 249 251 250 246 240 233 227 224 222 225 223 229
252 251 243 257 257 257 264 258 257 244 229 229 233 240 221 224 223 210 204 204 205 206 213 216 220 221 224 237 244 247 246 245 244 244 239 231 229 230 226 220 218 233 240
235 239 250 240 244 248 245 227 215 222 237 236 236 232 229 208 198 201 199 189 200 190 175 187 213 233 241 242 242 241 242 245 246 245 237 231 228 227 224 223 227 240 253
239 226 234 226 215 221 218 231 218 207 195 194 185 166 149 135 130 125 126 149 170 195 213 215 216 221 228 237 243 249 252 256 258 254 249 240 234 231 230 230 231 244 255
231 237 220 199 198 203 203 192 181 156 147 138 135 135 151 163 164 171 175 183 192 199 203 212 219 233 241 247 255 262 266 268 268 260 253 248 246 242 241 238 239 248 249
225 202 188 184 188 191 176 175 174 184 182 181 179 180 180 181 181 182 186 190 195 202 209 215 220 226 231 240 251 260 261 259 260 259 261 262 255 248 244 242 242 246 247
203 187 186 190 193 189 186 190 191 185 185 185 183 181 183 185 183 180 181 187 191 195 197 203 215 221 227 233 241 250 256 258 261 263 262 263 261 254 248 242 243 245 246
177 187 184 182 186 183 187 187 188 183 177 173 174 173 171 172 173 178 189 196 193 196 202 211 220 228 236 243 249 252 254 256 258 259 259 259 258 254 247 245 246 245 244
175 179 178 178 181 186 180 179 172 169 169 166 163 158 162 168 171 177 188 200 213 227 237 241 246 246 246 247 254 258 265 268 267 265 262 260 258 253 250 248 246 242 240
152 151 163 170 169 168 166 166 162 157 155 154 157 159 162 167 177 188 203 225 244 255 263 269 272 267 264 263 266 264 265 270 273 271 267 261 257 253 248 243 240 238 238
154 149 157 160 162 158 157 154 152 152 152 151 151 155 163 174 197 220 237 250 259 266 273 277 275 272 270 269 267 271 278 286 287 280 272 266 261 253 244 241 237 234 232
150 166 169 166 162 158 156 154 151 146 145 150 159 170 193 230 253 265 272 275 279 283 282 280 281 282 280 275 276 279 283 287 287 280 275 269 260 253 246 237 230 227 228
154 160 157 156 155 154 153 152 153 158 164 174 190 207 224 236 245 257 266 274 280 281 281 278 273 271 272 274 278 281 284 289 289 284 277 271 261 252 243 235 226 221 222
144 147 151 153 154 155 156 158 162 169 179 197 217 235 252 262 269 275 278 282 283 283 283 280 277 274 273 279 286 289 289 288 286 284 278 272 261 252 246 238 231 227 224
151 153 153 154 157 159 163 170 183 202 222 240 256 268 279 285 285 284 280 277 278 281 284 285 283 281 279 283 289 288 286 285 283 278 270 266 260 251 245 240 234 229 225
159 161 163 166 169 173 182 200 226 250 269 283 292 293 292 289 286 284 283 284 285 286 286 286 282 277 274 276 281 282 286 287 284 278 269 258 255 250 245 240 233 230 231
165 164 167 173 183 199 218 242 264 280 291 293 292 292 294 295 293 291 287 283 279 277 277 276 273 272 270 271 272 277 282 286 286 280 270 258 251 248 245 241 236 234 235